Location: Bois Neuf
(42.7667°N, 0.6333°E)
Time: 21:30:16
(UTC+00:00)

STARLINK-1346 - Pass Details

Date: 07 June 2020
Orbit: 376 x 383 km, 53.0° (Epoch: 08 July)

Event Time Altitude Azimuth Distance (km) Brightness Sun altitude
Rises 03:03:20 0° 309° (NW) 2,262 6.7 -11.6°
Reaches altitude 10° 03:05:27 10° 316° (NW) 1,406 5.7 -11.3°
Maximum altitude 03:08:28 43° 30° (NNE) 548 4.2 -10.9°
Drops below altitude 10° 03:11:28 10° 104° (ESE) 1,397 6.1 -10.5°
Sets 03:13:34 0° 112° (ESE) 2,245 7.1 -10.3°
